SCP
-0 -0 0 0 -0 -0 -0 0 0 0 0 0 0 0 0 0 0 0 -0 -0 -0 0 0 -0 -0 -0 -0 -0 -0 -0 -0 -0 -0 -0 -0 -0 -0 -0 -0 -0 0 0 0
0 -0 0 0 0 0 0 0 0 0 0 0 0 0 0 0 0 0 -0 -0 -0 0 -0 -0 -0 -0 -0 -0 -0 -0 -0 0 -0 -0 0 0 0 0 0 0 0 0 0
0 0 0 -0 -0 0 0 0 0 0 0 0 0 0 0 0 -0 -0 -0 -0 -0 0 0 -0 -0 -0 -0 -0 -0 -0 -0 -0 -0 -0 -0 0 0 0 0 0 0 0 0
0 0 0 -0 -0 0 0 0 0 0 0 0 0 0 0 -0 -0 -0 -0 -0 -0 -0 0 -0 -0 -0 -0 -0 -0 -0 -0 -0 -0 -0 0 0 0 0 0 0 0 0 0
0 0 0 0 -0 0 0 0 0 0 0 0 0 0 0 -0 -0 -0 -0 -0 -0 -0 -0 0 0 0 0 0 0 0 0 0 -0 0 0 0 0 0 0 0 0 0 0
0 0 0 0 0 0 0 0 0 0 0 0 0 0 0 0 -0 -0 -0 -0 -0 -0 -0 0 0 0 -0 -0 0 0 0 0 -0 -0 -0 -0 0 0 0 0 0 0 0
0 0 0 0 0 0 0 0 0 0 0 0 0 0 0 0 -0 -0 -0 -0 -0 -0 -0 -0 0 -0 -0 -0 -0 -0 -0 -0 -0 -0 -0 0 0 -0 0 0 0 0 0
0 0 0 0 0 0 0 0 0 0 0 0 0 0 -0 -0 -0 -0 -0 -0 -0 -0 -0 -0 -0 -0 -0 -0 -0 -0 -0 -0 0 0 -0 -0 -0 -0 -0 -0 0 0 0
0 0 0 0 0 0 0 0 0 0 0 0 -0 -0 -0 -0 -0 -0 -0 -0 -0 -0 -0 -0 -0 -0 -0 -0 -0 0 0 0 0 0 0 0 -0 -0 -0 -0 0 0 -0
0 0 0 0 0 0 0 0 0 0 0 -0 0 0 -0 -0 -0 -0 -0 -0 -0 -0 -0 -0 0 -0 -0 -0 0 0 0 0 0 0 0 0 -0 -0 -0 -0 0 0 0
0 0 0 0 0 0 0 0 0 0 0 0 0 -0 -0 0 -0 -0 -0 -0 -0 -0 -0 0 0 0 0 0 0 0 0 0 0 0 0 0 0 0 -0 -0 0 0 0
0 0 0 0 0 0 0 0 0 0 0 0 0 0 0 0 0 -0 -0 -0 -0 -0 0 0 0 0 0 0 0 0 0 0 0 0 0 0 0 0 0 0 0 0 0
0 0 0 0 0 0 0 0 0 0 0 0 0 0 0 0 0 0 0 0 0 0 0 0 0 0 0 0 0 0 0 0 0 0 0 0 0 0 0 0 0 0 0
0 0 0 0 0 0 0 0 0 0 0 0 0 0 0 0 0 0 0 0 0 0 0 0 0 0 0 0 0 0 0 0 0 0 0 0 0 0 0 0 0 0 0
0 0 0 0 0 0 0 0 0 0 0 0 0 0 0 0 0 0 0 0 0 0 0 0 0 0 0 0 0 0 0 0 0 0 0 0 0 0 0 0 0 0 0
-0 -0 -0 0 0 0 0 0 0 0 0 0 0 0 0 0 0 0 0 0 0 0 0 0 0 0 0 0 0 0 0 0 0 0 0 0 0 0 0 0 0 0 0
0 -0 -0 -0 0 0 0 0 0 0 0 0 0 0 0 0 0 0 0 0 0 0 0 0 0 0 0 0 0 0 0 0 0 0 0 0 0 0 0 0 0 0 0
0 0 0 0 0 0 0 0 0 0 0 0 0 0 0 0 0 0 0 0 0 0 0 0 0 0 0 0 0 0 0 0 0 0 0 0 0 0 0 0 0 0 0
0 0 0 0 0 0 0 0 0 0 0 0 0 0 0 0 0 0 0 0 0 0 0 0 0 0 0 0 0 0 0 0 0 0 0 0 0 0 0 0 0 0 0
0 0 0 0 0 0 0 0 0 0 0 0 0 0 0 0 0 0 0 0 0 0 0 0 0 0 0 0 0 0 0 0 0 0 0 0 0 0 0 0 0 0 0
0 0 0 0 0 0 0 0 0 0 0 0 0 0 0 0 0 0 0 0 0 0 0 0 0 0 0 0 0 0 0 0 0 0 0 0 0 0 0 0 0 0 0
0 0 0 0 0 0 0 0 0 0 0 0 0 0 0 0 0 0 0 0 0 0 0 0 0 0 0 0 0 0 0 0 0 0 0 0 0 0 0 0 0 0 0
0 0 0 0 0 0 0 0 0 0 0 0 0 0 0 0 0 0 0 0 0 0 0 0 0 0 0 0 0 0 -0 -0 0 0 0 0 0 0 0 0 0 0 0
0 0 0 0 0 0 0 0 0 0 0 0 0 0 0 0 0 0 0 0 0 0 0 0 0 0 0 0 0 0 0 0 0 0 0 0 0 0 0 0 0 0 0
0 0 0 0 0 0 0 0 0 0 0 0 0 0 0 0 0 0 0 0 0 0 0 0 0 0 0 0 0 0 0 0 0 0 0 0 0 0 0 0 0 0 0
0 0 0 0 0 0 0 0 0 0 0 0 0 0 0 0 0 0 0 0 0 0 0 0 0 0 0 0 0 0 0 0 0 0 0 0 0 -0 0 0 0 0 0
Wind_Speed_500mb
29 30 34 37 31 27 25 22 26 22 17 18 19 19 19 18 16 16 13 13 14 16 20 21 21 19 18 17 16 16 16 18 19 19 16 13 12 10 11 11 12 11 10
32 35 34 37 35 35 30 27 29 26 17 12 15 17 18 19 18 18 16 15 16 17 19 19 19 18 18 18 19 17 15 15 15 14 13 14 13 7 6 6 6 8 10
31 35 34 35 35 33 30 35 31 26 19 11 13 15 15 16 17 16 16 15 14 14 15 15 15 15 15 16 16 15 13 10 12 14 13 14 16 12 8 7 6 6 6
27 34 32 32 33 30 29 35 36 29 18 13 14 14 14 14 14 14 13 13 12 12 12 12 12 12 12 12 12 11 9 6 7 8 13 12 12 13 12 10 10 10 13
28 32 30 31 31 31 31 30 30 23 16 14 13 12 11 12 12 11 11 10 10 9 8 9 9 10 10 10 10 10 9 9 9 11 11 14 12 13 15 15 14 14 15
28 30 29 31 31 31 28 27 23 18 15 12 10 9 9 9 8 8 8 8 8 9 9 10 11 12 13 13 12 12 12 13 14 16 17 16 18 15 17 18 19 20 21
31 30 28 29 29 29 26 25 19 12 10 8 5 4 5 5 5 6 7 9 10 12 13 14 14 15 15 17 17 17 16 16 17 19 21 22 22 22 19 22 23 23 24
27 31 27 28 28 26 24 22 15 12 8 4 2 1 0 3 5 8 10 12 13 15 17 18 19 19 19 19 20 20 21 21 21 21 23 25 26 25 24 24 25 26 28
21 20 25 27 27 26 24 21 17 13 9 5 5 6 7 10 11 11 12 13 14 16 19 22 23 22 22 22 22 23 24 24 24 24 26 27 27 27 28 28 28 30 31
15 14 22 22 21 20 20 20 17 14 10 9 10 11 11 11 12 14 16 17 17 17 21 24 24 24 23 25 26 27 29 28 29 28 27 27 28 31 33 32 33 34 35
19 13 24 21 19 17 15 14 13 11 11 12 13 10 11 12 14 16 17 19 20 21 25 27 28 29 29 29 30 30 33 33 33 34 34 32 34 36 37 36 38 39 40
19 17 17 19 18 17 15 15 13 13 14 15 16 15 14 15 16 20 21 24 26 26 28 28 29 31 34 34 33 33 35 36 39 40 40 39 41 42 43 44 44 45 45
16 14 16 14 13 13 14 12 10 9 12 15 15 16 17 19 20 23 26 28 30 30 31 31 32 33 34 36 37 39 39 39 40 42 43 44 45 46 49 50 49 49 50
25 16 12 10 11 13 14 14 14 15 17 18 18 19 22 24 26 28 30 33 34 33 34 34 36 37 40 40 41 43 44 45 45 47 48 46 46 48 50 52 52 53 53
27 19 16 15 14 16 18 19 20 20 21 18 19 21 25 29 31 31 32 34 35 36 38 40 41 43 45 47 48 50 51 51 52 53 55 52 49 49 49 50 51 52 54
12 12 20 18 18 19 22 23 21 19 19 22 21 24 27 30 33 34 34 35 38 40 41 44 45 47 50 50 53 52 54 55 56 57 58 61 58 54 52 53 55 56 58
14 15 16 10 10 13 17 24 22 22 24 23 24 25 28 30 34 35 36 39 37 38 41 44 46 48 51 51 55 57 57 58 60 59 59 59 62 59 56 57 58 60 62
14 19 23 18 14 5 4 7 9 20 30 20 22 24 26 30 30 34 35 37 38 42 44 45 46 48 51 53 56 56 58 59 61 62 64 64 67 65 61 55 50 46 48
12 13 17 21 22 19 11 0 3 6 3 18 19 18 16 19 21 23 26 30 28 33 36 41 44 46 52 53 55 56 59 62 64 62 61 60 56 51 47 49 57 63 62
9 15 14 14 16 13 10 4 2 4 6 9 11 13 18 23 26 28 28 28 30 28 27 29 32 35 39 42 45 51 51 52 53 48 55 50 49 42 56 72 69 62 54
14 8 12 17 13 10 15 14 7 7 3 5 10 13 16 21 25 23 22 25 31 37 39 38 37 39 45 48 55 59 60 41 43 49 41 37 60 75 62 67 69 67 70
28 26 21 15 10 9 15 15 6 3 6 8 11 15 18 17 22 24 28 32 30 29 27 30 35 39 37 39 45 52 32 50 18 32 54 64 66 61 63 66 64 64 67
37 37 34 31 27 19 15 18 9 4 2 1 5 8 14 16 17 17 17 19 22 25 29 32 35 40 42 43 41 32 30 26 73 49 68 57 66 70 72 73 69 69 73
46 44 42 40 39 38 30 23 22 24 23 24 21 18 16 15 17 18 20 23 26 28 30 35 38 40 43 46 48 48 43 48 48 54 34 69 62 69 73 76 77 76 73
41 41 40 38 38 36 32 29 26 25 25 20 16 14 16 19 22 25 27 30 33 35 37 39 42 45 48 49 49 54 58 62 58 65 57 63 79 72 70 75 76 84 88
38 37 34 31 34 30 27 25 24 21 19 15 17 20 24 28 30 32 36 38 40 41 43 45 44 45 47 49 51 52 52 50 55 57 67 84 72 61 75 73 70 66 69
Wind_Direction_500mb
166 161 157 153 152 135 131 128 125 125 111 102 94 95 96 97 98 99 108 92 79 70 62 62 62 62 58 57 59 62 63 72 75 77 76 77 74 46 45 47 45 38 20
156 156 157 161 156 148 148 148 126 137 132 112 95 92 94 95 93 92 91 82 73 66 62 61 60 59 58 59 57 56 57 74 69 71 67 67 71 44 14 13 12 29 12
159 154 155 162 163 161 145 137 132 146 165 139 110 104 101 98 95 91 88 81 73 66 62 57 54 51 50 51 52 52 52 48 38 21 31 46 35 32 14 343 314 295 292
163 156 156 157 162 164 162 153 149 158 152 134 119 112 104 98 90 84 78 71 66 57 51 46 41 35 32 34 40 39 34 15 8 354 349 358 23 357 354 344 327 309 299
167 159 158 156 157 154 153 154 165 170 158 139 125 111 97 89 81 72 67 61 53 43 33 28 24 16 9 6 9 6 355 342 333 327 326 321 335 332 325 324 318 312 305
168 162 159 157 156 152 150 145 153 151 147 135 122 104 88 74 61 53 46 39 27 18 10 4 358 353 347 344 344 342 334 325 318 314 315 313 321 318 311 308 308 304 301
165 161 160 158 158 157 149 157 174 159 147 135 118 97 78 52 30 17 7 2 352 349 345 342 339 336 335 335 333 331 328 322 317 313 313 312 311 307 302 300 300 299 297
164 158 161 162 161 160 168 178 186 177 166 156 139 146 22 355 350 348 349 347 339 332 328 326 326 326 326 326 324 324 323 320 316 312 308 307 305 303 303 301 298 299 298
157 159 166 171 169 173 174 179 187 197 203 233 257 273 309 330 330 331 329 327 320 318 318 319 319 318 317 317 319 319 317 314 313 309 308 308 306 308 307 303 300 297 297
156 172 188 181 184 186 186 192 200 207 228 266 298 314 322 323 314 314 316 317 317 318 319 317 316 316 314 315 317 315 309 311 308 309 312 312 307 306 303 301 299 298 296
172 187 189 191 192 194 201 211 221 237 259 283 307 308 311 315 315 313 310 312 313 317 315 316 316 314 314 314 314 313 311 312 308 309 309 309 305 303 302 302 299 297 296
188 181 181 202 204 208 212 220 233 248 265 281 295 307 316 317 317 316 321 320 321 325 324 322 319 318 316 316 314 309 307 307 308 308 306 306 303 301 301 301 299 297 297
196 207 192 195 217 219 225 227 234 265 294 302 297 308 312 315 316 318 320 320 320 321 322 323 322 321 316 313 310 310 309 308 307 307 307 307 305 303 300 297 296 295 295
203 212 216 223 247 260 260 265 275 284 294 298 303 308 314 317 318 321 321 319 314 316 316 319 319 319 318 317 315 313 313 313 312 310 308 307 305 301 299 298 296 296 295
213 216 224 232 255 267 274 275 277 288 293 302 307 317 320 323 320 318 317 314 312 311 313 314 315 316 316 315 315 314 313 312 310 309 307 305 303 300 299 297 298 297 296
188 220 232 236 238 260 264 269 270 282 296 298 309 319 316 315 317 317 319 322 319 315 312 309 310 311 310 311 310 311 309 308 307 306 305 304 303 300 300 299 298 298 297
209 207 208 234 256 264 272 260 260 278 279 286 298 305 307 311 312 312 313 311 321 320 316 311 309 307 306 309 308 310 309 308 307 308 308 309 306 306 307 304 300 296 294
212 219 226 224 211 214 322 309 280 298 271 298 294 292 299 300 302 305 307 310 311 311 309 311 310 309 309 307 306 308 306 305 306 307 306 308 312 316 313 310 309 309 306
173 183 215 227 227 219 216 231 334 327 243 265 285 281 287 300 309 314 318 315 318 313 314 312 312 314 311 312 311 308 306 307 306 306 307 311 313 309 310 311 309 305 306
199 211 209 216 243 221 181 112 24 258 284 291 297 301 318 314 317 321 313 312 320 331 333 328 329 325 327 330 324 321 316 309 312 311 315 307 303 305 307 305 304 305 305
105 139 206 222 223 204 155 112 181 226 197 284 304 321 336 336 330 322 328 324 324 329 325 320 320 320 321 320 318 312 314 320 315 318 303 304 304 305 304 301 305 300 303
88 87 92 110 136 150 153 134 163 270 312 344 344 322 322 319 322 318 318 316 318 323 329 327 331 330 326 331 336 331 330 324 315 298 300 303 310 311 311 310 308 310 306
90 86 86 87 91 100 120 123 122 104 140 193 7 33 38 35 32 22 8 358 350 346 347 346 342 344 338 332 338 347 337 315 317 317 313 319 315 315 315 315 311 311 310
88 90 89 90 91 91 96 111 107 99 89 70 62 51 42 33 22 16 8 359 355 354 348 350 348 344 341 340 332 331 326 320 320 317 312 305 307 309 312 314 317 316 318
96 93 91 90 89 88 88 86 83 81 76 70 62 46 28 16 7 0 356 352 348 347 346 343 340 340 340 338 338 332 324 322 325 325 319 317 313 311 308 305 303 303 305
98 96 93 91 88 83 77 74 68 61 53 33 17 5 1 357 354 349 347 345 342 339 339 338 337 334 333 332 332 332 335 338 328 325 320 318 318 319 314 314 312 308 304
Wind_Speed_850mb
29 30 34 37 31 27 25 22 26 22 17 18 19 19 19 18 16 16 13 13 14 16 20 21 21 19 18 17 16 16 16 18 19 19 16 13 12 10 11 11 12 11 10
32 35 34 37 35 35 30 27 29 26 17 12 15 17 18 19 18 18 16 15 16 17 19 19 19 18 18 18 19 17 15 15 15 14 13 14 13 7 6 6 6 8 10
31 35 34 35 35 33 30 35 31 26 19 11 13 15 15 16 17 16 16 15 14 14 15 15 15 15 15 16 16 15 13 10 12 14 13 14 16 12 8 7 6 6 6
27 34 32 32 33 30 29 35 36 29 18 13 14 14 14 14 14 14 13 13 12 12 12 12 12 12 12 12 12 11 9 6 7 8 13 12 12 13 12 10 10 10 13
28 32 30 31 31 31 31 30 30 23 16 14 13 12 11 12 12 11 11 10 10 9 8 9 9 10 10 10 10 10 9 9 9 11 11 14 12 13 15 15 14 14 15
28 30 29 31 31 31 28 27 23 18 15 12 10 9 9 9 8 8 8 8 8 9 9 10 11 12 13 13 12 12 12 13 14 16 17 16 18 15 17 18 19 20 21
31 30 28 29 29 29 26 25 19 12 10 8 5 4 5 5 5 6 7 9 10 12 13 14 14 15 15 17 17 17 16 16 17 19 21 22 22 22 19 22 23 23 24
27 31 27 28 28 26 24 22 15 12 8 4 2 1 0 3 5 8 10 12 13 15 17 18 19 19 19 19 20 20 21 21 21 21 23 25 26 25 24 24 25 26 28
21 20 25 27 27 26 24 21 17 13 9 5 5 6 7 10 11 11 12 13 14 16 19 22 23 22 22 22 22 23 24 24 24 24 26 27 27 27 28 28 28 30 31
15 14 22 22 21 20 20 20 17 14 10 9 10 11 11 11 12 14 16 17 17 17 21 24 24 24 23 25 26 27 29 28 29 28 27 27 28 31 33 32 33 34 35
19 13 24 21 19 17 15 14 13 11 11 12 13 10 11 12 14 16 17 19 20 21 25 27 28 29 29 29 30 30 33 33 33 34 34 32 34 36 37 36 38 39 40
19 17 17 19 18 17 15 15 13 13 14 15 16 15 14 15 16 20 21 24 26 26 28 28 29 31 34 34 33 33 35 36 39 40 40 39 41 42 43 44 44 45 45
16 14 16 14 13 13 14 12 10 9 12 15 15 16 17 19 20 23 26 28 30 30 31 31 32 33 34 36 37 39 39 39 40 42 43 44 45 46 49 50 49 49 50
25 16 12 10 11 13 14 14 14 15 17 18 18 19 22 24 26 28 30 33 34 33 34 34 36 37 40 40 41 43 44 45 45 47 48 46 46 48 50 52 52 53 53
27 19 16 15 14 16 18 19 20 20 21 18 19 21 25 29 31 31 32 34 35 36 38 40 41 43 45 47 48 50 51 51 52 53 55 52 49 49 49 50 51 52 54
12 12 20 18 18 19 22 23 21 19 19 22 21 24 27 30 33 34 34 35 38 40 41 44 45 47 50 50 53 52 54 55 56 57 58 61 58 54 52 53 55 56 58
14 15 16 10 10 13 17 24 22 22 24 23 24 25 28 30 34 35 36 39 37 38 41 44 46 48 51 51 55 57 57 58 60 59 59 59 62 59 56 57 58 60 62
14 19 23 18 14 5 4 7 9 20 30 20 22 24 26 30 30 34 35 37 38 42 44 45 46 48 51 53 56 56 58 59 61 62 64 64 67 65 61 55 50 46 48
12 13 17 21 22 19 11 0 3 6 3 18 19 18 16 19 21 23 26 30 28 33 36 41 44 46 52 53 55 56 59 62 64 62 61 60 56 51 47 49 57 63 62
9 15 14 14 16 13 10 4 2 4 6 9 11 13 18 23 26 28 28 28 30 28 27 29 32 35 39 42 45 51 51 52 53 48 55 50 49 42 56 72 69 62 54
14 8 12 17 13 10 15 14 7 7 3 5 10 13 16 21 25 23 22 25 31 37 39 38 37 39 45 48 55 59 60 41 43 49 41 37 60 75 62 67 69 67 70
28 26 21 15 10 9 15 15 6 3 6 8 11 15 18 17 22 24 28 32 30 29 27 30 35 39 37 39 45 52 32 50 18 32 54 64 66 61 63 66 64 64 67
37 37 34 31 27 19 15 18 9 4 2 1 5 8 14 16 17 17 17 19 22 25 29 32 35 40 42 43 41 32 30 26 73 49 68 57 66 70 72 73 69 69 73
46 44 42 40 39 38 30 23 22 24 23 24 21 18 16 15 17 18 20 23 26 28 30 35 38 40 43 46 48 48 43 48 48 54 34 69 62 69 73 76 77 76 73
41 41 40 38 38 36 32 29 26 25 25 20 16 14 16 19 22 25 27 30 33 35 37 39 42 45 48 49 49 54 58 62 58 65 57 63 79 72 70 75 76 84 88
38 37 34 31 34 30 27 25 24 21 19 15 17 20 24 28 30 32 36 38 40 41 43 45 44 45 47 49 51 52 52 50 55 57 67 84 72 61 75 73 70 66 69
Wind_Direction_850mb
166 161 157 153 152 135 131 128 125 125 111 102 94 95 96 97 98 99 108 92 79 70 62 62 62 62 58 57 59 62 63 72 75 77 76 77 74 46 45 47 45 38 20
156 156 157 161 156 148 148 148 126 137 132 112 95 92 94 95 93 92 91 82 73 66 62 61 60 59 58 59 57 56 57 74 69 71 67 67 71 44 14 13 12 29 12
159 154 155 162 163 161 145 137 132 146 165 139 110 104 101 98 95 91 88 81 73 66 62 57 54 51 50 51 52 52 52 48 38 21 31 46 35 32 14 343 314 295 292
163 156 156 157 162 164 162 153 149 158 152 134 119 112 104 98 90 84 78 71 66 57 51 46 41 35 32 34 40 39 34 15 8 354 349 358 23 357 354 344 327 309 299
167 159 158 156 157 154 153 154 165 170 158 139 125 111 97 89 81 72 67 61 53 43 33 28 24 16 9 6 9 6 355 342 333 327 326 321 335 332 325 324 318 312 305
168 162 159 157 156 152 150 145 153 151 147 135 122 104 88 74 61 53 46 39 27 18 10 4 358 353 347 344 344 342 334 325 318 314 315 313 321 318 311 308 308 304 301
165 161 160 158 158 157 149 157 174 159 147 135 118 97 78 52 30 17 7 2 352 349 345 342 339 336 335 335 333 331 328 322 317 313 313 312 311 307 302 300 300 299 297
164 158 161 162 161 160 168 178 186 177 166 156 139 146 22 355 350 348 349 347 339 332 328 326 326 326 326 326 324 324 323 320 316 312 308 307 305 303 303 301 298 299 298
157 159 166 171 169 173 174 179 187 197 203 233 257 273 309 330 330 331 329 327 320 318 318 319 319 318 317 317 319 319 317 314 313 309 308 308 306 308 307 303 300 297 297
156 172 188 181 184 186 186 192 200 207 228 266 298 314 322 323 314 314 316 317 317 318 319 317 316 316 314 315 317 315 309 311 308 309 312 312 307 306 303 301 299 298 296
172 187 189 191 192 194 201 211 221 237 259 283 307 308 311 315 315 313 310 312 313 317 315 316 316 314 314 314 314 313 311 312 308 309 309 309 305 303 302 302 299 297 296
188 181 181 202 204 208 212 220 233 248 265 281 295 307 316 317 317 316 321 320 321 325 324 322 319 318 316 316 314 309 307 307 308 308 306 306 303 301 301 301 299 297 297
196 207 192 195 217 219 225 227 234 265 294 302 297 308 312 315 316 318 320 320 320 321 322 323 322 321 316 313 310 310 309 308 307 307 307 307 305 303 300 297 296 295 295
203 212 216 223 247 260 260 265 275 284 294 298 303 308 314 317 318 321 321 319 314 316 316 319 319 319 318 317 315 313 313 313 312 310 308 307 305 301 299 298 296 296 295
213 216 224 232 255 267 274 275 277 288 293 302 307 317 320 323 320 318 317 314 312 311 313 314 315 316 316 315 315 314 313 312 310 309 307 305 303 300 299 297 298 297 296
188 220 232 236 238 260 264 269 270 282 296 298 309 319 316 315 317 317 319 322 319 315 312 309 310 311 310 311 310 311 309 308 307 306 305 304 303 300 300 299 298 298 297
209 207 208 234 256 264 272 260 260 278 279 286 298 305 307 311 312 312 313 311 321 320 316 311 309 307 306 309 308 310 309 308 307 308 308 309 306 306 307 304 300 296 294
212 219 226 224 211 214 322 309 280 298 271 298 294 292 299 300 302 305 307 310 311 311 309 311 310 309 309 307 306 308 306 305 306 307 306 308 312 316 313 310 309 309 306
173 183 215 227 227 219 216 231 334 327 243 265 285 281 287 300 309 314 318 315 318 313 314 312 312 314 311 312 311 308 306 307 306 306 307 311 313 309 310 311 309 305 306
199 211 209 216 243 221 181 112 24 258 284 291 297 301 318 314 317 321 313 312 320 331 333 328 329 325 327 330 324 321 316 309 312 311 315 307 303 305 307 305 304 305 305
105 139 206 222 223 204 155 112 181 226 197 284 304 321 336 336 330 322 328 324 324 329 325 320 320 320 321 320 318 312 314 320 315 318 303 304 304 305 304 301 305 300 303
88 87 92 110 136 150 153 134 163 270 312 344 344 322 322 319 322 318 318 316 318 323 329 327 331 330 326 331 336 331 330 324 315 298 300 303 310 311 311 310 308 310 306
90 86 86 87 91 100 120 123 122 104 140 193 7 33 38 35 32 22 8 358 350 346 347 346 342 344 338 332 338 347 337 315 317 317 313 319 315 315 315 315 311 311 310
88 90 89 90 91 91 96 111 107 99 89 70 62 51 42 33 22 16 8 359 355 354 348 350 348 344 341 340 332 331 326 320 320 317 312 305 307 309 312 314 317 316 318
96 93 91 90 89 88 88 86 83 81 76 70 62 46 28 16 7 0 356 352 348 347 346 343 340 340 340 338 338 332 324 322 325 325 319 317 313 311 308 305 303 303 305
98 96 93 91 88 83 77 74 68 61 53 33 17 5 1 357 354 349 347 345 342 339 339 338 337 334 333 332 332 332 335 338 328 325 320 318 318 319 314 314 312 308 304